Satellite-Ground Cal/Val Site Overpasses Predictions

Prediction of Satellite NPP Overpassing Cal/Val Site: Antarctic Dome C

Ground Cal/Val Site Location: Latitude: -75.10, Longitude: 123.35; Satellite-Ground Site NADIR distance within 100 km.

Table of predicted overpasses for the next 14.0 days since TLE Epoch: 6/18/2021
Interval Starting Time Ending Time Minimum Distance Time Minimum Distance (km)
1 06/18/2021 14:36:02 06/18/2021 14:36:17 06/18/2021 14:36:09 84.67
2 06/19/2021 07:37:35 06/19/2021 07:38:03 06/19/2021 07:37:49 35.02
3 06/20/2021 07:18:51 06/20/2021 07:19:10 06/20/2021 07:19:00 74.98
4 06/22/2021 15:01:07 06/22/2021 15:01:30 06/22/2021 15:01:18 59.68
5 06/23/2021 14:42:17 06/23/2021 14:42:43 06/23/2021 14:42:30 49.44
6 06/24/2021 07:44:00 06/24/2021 07:44:20 06/24/2021 07:44:10 70.56
7 06/25/2021 07:25:07 06/25/2021 07:25:34 06/25/2021 07:25:21 37.27
8 06/27/2021 15:07:37 06/27/2021 15:07:42 06/27/2021 15:07:40 97.73
9 06/28/2021 14:48:36 06/28/2021 14:49:05 06/28/2021 14:48:51 13.47
